Location: Newark
(25.6108°S, 54.5803°W)
Time: 16:56:21
(UTC+00:00)

X-37B - Visible Passes

Search period start: 30 September 2020 00:00
Search period end: 10 October 2020 00:00
Orbit: 386 x 387 km, 45.0° (Epoch: 18 September)

Date Brightness Start Highest point End Pass type
(mag) Time Alt. Az. Time Alt. Az. Time Alt. Az.
03 Oct 3.4 08:04:13 10° N 08:06:07 15° NE 08:08:02 10° E visible
04 Oct 0.6 08:40:44 10° NW 08:43:56 86° SW 08:47:09 10° SE visible
05 Oct 1.8 07:45:01 33° NNE 07:45:25 35° NE 07:48:24 10° ESE visible
06 Oct 1.5 08:21:46 20° W 08:23:24 34° SW 08:26:24 10° SSE visible
07 Oct 2.3 07:26:05 33° SE 07:26:05 33° SE 07:28:02 10° SE visible
08 Oct 2.6 08:02:35 17° SW 08:02:59 18° SSW 08:05:15 10° SSE visible
09 Oct 3.7 07:06:43 14° SSE 07:06:43 14° SSE 07:07:16 10° SSE visible
